Location: Omaha
(41.2590°N, 95.9380°W)
Time: 22:23:23
(UTC-06:00)

ZACube-1 - Visible Passes

Search period start: 21 January 2018 00:00
Search period end: 31 January 2018 00:00
Orbit: 586 x 667 km, 97.6° (Epoch: 21 January)

Date Brightness Start Highest point End Pass type
(mag) Time Alt. Az. Time Alt. Az. Time Alt. Az.
21 Jan ? 18:56:23 24° NE 18:56:23 24° NE 18:59:03 10° N visible
21 Jan ? 20:33:39 19° NW 20:33:39 19° NW 20:35:20 10° NW visible
22 Jan ? 19:15:27 36° NE 19:15:27 36° NE 19:18:42 10° N visible
22 Jan ? 20:52:44 15° WNW 20:52:44 15° WNW 20:53:59 10° NW visible
23 Jan ? 19:34:29 54° NNE 19:34:29 54° NNE 19:38:10 10° N visible
24 Jan ? 18:16:12 11° ENE 18:17:18 12° ENE 18:19:02 10° NE visible
24 Jan ? 19:53:28 64° NW 19:53:28 64° NW 19:57:29 10° NNW visible
25 Jan ? 18:35:08 17° E 18:36:21 19° ENE 18:39:29 10° NNE visible
25 Jan ? 20:12:24 45° W 20:12:24 45° W 20:16:38 10° NNW visible
26 Jan ? 18:54:02 23° E 18:55:27 28° ENE 18:59:21 10° N visible
26 Jan ? 20:31:16 28° WSW 20:31:38 28° W 20:35:35 10° NW visible
27 Jan ? 19:12:48 29° ESE 19:14:38 44° ENE 19:18:59 10° N visible
27 Jan ? 20:50:02 17° WSW 20:51:05 18° W 20:54:14 10° NW visible
28 Jan ? 19:31:22 26° SSE 19:33:51 71° ENE 19:38:26 10° N visible
28 Jan ? 21:09:17 10° WSW 21:10:37 11° W 21:11:55 10° WNW visible
29 Jan ? 18:15:37 10° E 18:17:31 12° ENE 18:19:25 10° NE visible
29 Jan ? 19:48:38 10° S 19:53:08 72° WSW 19:57:44 10° NNW visible
30 Jan ? 18:33:23 10° ESE 18:36:35 19° ENE 18:39:47 10° NNE visible
30 Jan ? 20:08:09 10° S 20:12:29 44° W 20:16:53 10° NNW visible
